User: anonymous   Login
Location: Caltech
(34.1382°N, 118.1253°W)
Time: 20:34:12
(UTC-07:00)
Language:

Cosmos 1937 Rocket - Orbit

View from above orbital plane
View from above orbital plane
View from above satellite
View from above satellite

Ground track
Ground track

The orbit data is extracted from the following two-line orbital elements,

1 19039U 88029B   15241.20012948  .00000042  00000-0  22417-4 0  9994
2 19039 074.0465 071.0080 0023083 045.8251 079.5712 14.38241995436254
Epoch (UTC): 29 August 2015 04:48:11
Eccentricity: 0.0023083
inclination: 74.0465°
perigee height: 748 km
apogee height: 781 km
right ascension of ascending node: 71.0080°
argument of perigee: 45.8251°
revolutions per day: 14.38241995
mean anomaly at epoch: 79.5712°
orbit number at epoch: 43625

The dashed part of the orbit path shows where the satellite is in the earth's shadow,  

DLR